www.pogodaiklimat.ru

Погода и климат >> Архив погоды >> Россия >> Иркутская область >> Балаганск


АРХИВ ПОГОДЫ в Балаганске

Время (UTC), дата Ветер
(напр.,м/с)
 
Видим.   Явления Облачность Т
(С)
Тd
(С)
f
(%)
Тe
(С)
Тes
(С)
Комфортность P
(гПа)
Po
(гПа)
Тmin
(С)
Tmax
(С)
R
(мм)
R24
(мм)
S
(см)
06 17.07 В 2 50 км {туман} 8/3 600 м
[Sc diur, vesp Cs]
+24.9 +17.6 64 +29 +38 душно 1003.9 956.5
09 17.07 ЮВ 1 50 км 8/3 600 м
[Sc diur, vesp Cs]
+27.0 +17.4 56 +31 +36 душно 1001.8 954.8
12 17.07 С 1 50 км 8/3 600 м
[Sc diur, vesp Cs]
+26.4 +17.9 60 +31 +31 душно 1002.2 955.1 +28.3
15 17.07 З 2 н/о 8/3 600 м
[Sc Cs]
+20.8 +18.1 85 +26 +26 душно 1004.4 956.3
18 17.07 СЗ 3 н/о зарница 9/3 600 м
[Sc Ac trans Cs]
+19.8 +17.3 86 +23 +23 комфорт 1005.4 957.1
21 17.07 З 4 50 км 10/4 600 м
[Sc Ac As Cs]
+18.9 +15.9 83 +20 +20 1006.0 957.5
00 18.07 З 3 50 км 10/3 600 м
[Sc Ac As Ci sp]
+19.0 +15.7 81 +21 +22 комфорт 1006.8 958.3 +18.2
03 18.07 З 3 50 км 10/3 600 м
[Sc Ac trans Cs]
+23.5 +18.1 72 +28 +32 душно 1006.2 958.5
06 18.07 СЗ 4 50 км гроза без осадков 8/3 600 м
[Cb cap Ac trans Cs]
+26.9 +18.8 61 +32 +37 очень
душно
1004.5 957.4
09 18.07 С 4 50 км {гроза} 9/3 600 м
[Sc diur, vesp Ac trans Cs]
+26.6 +17.9 59 +31 +33 душно 1003.8 956.7
12 18.07 В 3 50 км гроза без осадков 10/8 600 м
[Cb cap Ac trans Cs]
+23.9 +14.9 57 +27 +27 жарко 1004.8 957.2 +27.3
15 18.07 З 1 н/о {гроза} 6/0
[Ac trans Cs]
+20.1 +17.2 83 +24 +24 комфорт 1005.3 957.1
18 18.07 ЮЗ 1 н/о {гроза} 6/0
[Ac trans Cs]
+16.9 +16.1 95 +18 +18 1005.3 956.6
21 18.07 З 2 20 км 6/0
[Cs]
+15.9 +15.2 96 +16 +16 1005.1 956.2
00 19.07 З 2 4000 м дымка 10/3 600 м
[Sc Cs]
+18.3 +17.4 94 +19 +21 1004.4 955.9 +15.6
03 19.07 ЮВ 2 50 км 8/3 600 м
[Cu med, cong Cs]
+22.4 +18.6 79 +28 +35 душно 1002.8 955.2
06 19.07 С 4 50 км 6/6 600 м
[Cb cap]
+26.6 +17.7 58 +31 +35 душно 1000.3 953.4
09 19.07 С 3 20 км 10/4 600 м
[Cb cap Cs]
+26.1 +17.4 59 +30 +33 душно 999.9 952.8
12 19.07 С 3 10 км дым 10/5 600 м
[Cb cap Cs]
+24.0 +16.7 64 +28 +28 душно 1000.8 953.4 +27.0
15 19.07 СЗ 2 н/о 10/3 600 м
[Sc Ac trans Cs]
+19.8 +16.3 80 +23 +23 комфорт 1001.7 953.6
18 19.07 СЗ 3 н/о 10/3 600 м
[Sc Ac trans Cs]
+18.0 +16.1 89 +18 +18 1001.4 953.0
21 19.07 СЗ 2 10 км дым 10/3 600 м
[Sc Ac trans Cs]
+17.8 +15.5 86 +18 +18 1001.4 953.0
00 20.07 ЮЗ 1 10 км дым 10/3 600 м
[Sc Ac trans Cs]
+18.8 +15.6 82 +21 +22 комфорт 1001.6 953.3 +17.3
03 20.07 ЮВ 2 10 км дым 10/3 600 м
[Sc Ac trans Cs]
+20.5 +16.7 79 +24 +29 комфорт 1001.5 953.5
06 20.07 В 2 10 км дым {ливн. осадки} 10/5 600 м
[Cb cap Ac trans Ci fib]
+21.6 +17.6 78 +26 +30 душно 1000.7 953.0
09 20.07 СЗ 4 20 км дым {гроза} 10/6 600 м
[Cb cap Ac trans Ci fib]
+22.2 +16.6 71 +27 +28 душно 1001.1 953.4
12 20.07 С 2 20 км дым {гроза} 10/3 600 м
[Sc diur, vesp Ac trans Cs]
+22.3 +17.8 76 +27 +27 душно 1001.6 953.9 +24.1 0.0
15 20.07 З 2 н/о дым 10/4 600 м
[Cb cap Ac trans Cs]
+18.8 +16.7 88 +21 +21 комфорт 1003.1 954.8
18 20.07 ЮЗ 1 н/о дым 5/0
[Ci fib]
+16.9 +15.9 94 +18 +18 1003.8 955.1
21 20.07 З 1 10 км дым 10/0
[Cs]
+15.5 +14.9 96 +16 +16 1004.4 955.5
00 21.07 З 2 10 км дым 10/8 600 м
[Cb cap Ac As]
+17.3 +15.9 91 +18 +18 1005.4 956.7 +15.3
03 21.07 З 2 10 км в посл. час ливневой дождь 10/8 600 м
[Cb cap Ac As]
+19.4 +17.1 87 +22 +23 комфорт 1005.3 957.0
06 21.07 З 6 10 км дым {ливн. осадки} 10/5 600 м
[Cb cap Ac trans Cs]
+21.1 +16.5 75 +25 +26 комфорт 1005.5 957.4
09 21.07 СЗ 4 10 км дым 10/3 600 м
[Sc diur, vesp Ac trans Cs]
+22.6 +16.9 70 +27 +29 душно 1005.1 957.3
12 21.07 СЗ 3 10 км дым 10/3 600 м
[Sc diur, vesp Ac trans Cc]
+21.6 +16.5 73 +25 +26 комфорт 1005.8 957.7 +22.8 0.0
15 21.07 З 4 н/о 10/3 600 м
[Sc diur, vesp Ac trans Cs]
+17.6 +15.7 89 +17 +17 1006.6 957.9
18 21.07 СЗ 2 н/о дым 10/3 600 м
[Sc diur, vesp Ac trans Cs]
+16.6 +15.2 91 +17 +17 1006.8 958.0
21 21.07 С 2 10 км дым 10/4 600 м
[Sc diur, vesp Ac As]
+16.7 +15.3 91 +17 +17 1005.9 957.1
00 22.07 С 1 10 км дым 10/4 600 м
[Sc diur, vesp Ac As]
+17.5 +15.9 90 +19 +19 1005.7 957.1 +16.2
03 22.07 З 1 10 км слаб. ливневой дождь 10/6 600 м
[Cb cap Ac As]
+17.6 +16.2 91 +19 +20 1006.0 957.3
06 22.07 СЗ 1 10 км в посл. час ливневой дождь 10/5 600 м
[Cb cap Ac trans Cs]
+19.5 +17.3 87 +23 +27 комфорт 1004.6 956.3
09 22.07 З 1 20 км 10/3 600 м
[Sc diur, vesp Ac trans Cs]
+23.5 +17.0 67 +27 +30 душно 1002.9 955.4
12 22.07 С 2 20 км 10/3 600 м
[Sc diur, vesp Ac trans Cs]
+23.5 +16.7 66 +27 +27 душно 1003.0 955.4 +24.2 3
15 22.07 З 2 н/о 10/3 600 м
[Sc Ac trans Cs]
+19.0 +17.5 91 +21 +21 комфорт 1003.4 955.1
18 22.07 З 3 н/о 10/3 600 м
[Sc Ac trans Cs]
+17.6 +16.6 94 +18 +18 1003.2 954.7
21 22.07 З 2 20 км 10/3 600 м
[Sc Ac trans Cs]
+16.3 +15.6 96 +16 +16 1002.9 954.1
00 23.07 С 2 4000 м в посл. час туман 10/3 600 м
[Sc Ac As]
+18.2 +17.2 94 +19 +20 1002.8 954.4 +16.2
03 23.07 З 1 10 км дымка 10/6 600 м
[Cb cap Ac As]
+19.9 +17.6 87 +24 +26 комфорт 1002.4 954.3
06 23.07 В 3 4000 м дымка 10/6 600 м
[Cb cap Ac As]
+20.4 +18.3 88 +24 +26 комфорт 1002.5 954.5
09 23.07 В 1 4000 м дымка 10/3 600 м
[Sc Ac As]
+22.1 +18.3 79 +27 +29 душно 1002.0 954.2
12 23.07 В 1 10 км дымка 10/3 600 м
[Sc Ac trans Ci fib]
+22.3 +19.0 82 +28 +28 душно 1002.5 954.8 +23.4
15 23.07 Ю 1 н/о 10/3 600 м
[Sc Ac trans Cs]
+20.4 +18.1 87 +25 +25 комфорт 1003.4 955.3
18 23.07 Ю 1 н/о 10/3 600 м
[Sc Ac trans Cs]
+18.3 +17.7 96 +20 +20 1004.1 955.6
21 23.07 штиль 0 10 км слаб. ливневой дождь 10/6 600 м
[Cb cap Ac As]
+17.0 +16.6 97 +17 +17 1004.2 955.5
00 24.07 СЗ 1 4000 м дымка {ливн. осадки} 10/5 600 м
[Cb cap Ac As]
+17.8 +17.1 96 +19 +20 1004.1 955.6 +16.8 0.0
03 24.07 В 1 4000 м дымка 10/4 600 м
[Cb cap Ac As]
+21.8 +18.4 81 +27 +29 душно 1002.9 955.1

 

Местоположение метеостанции Балаганск (Иркутская область, Россия): широта 54.00 долгота 103.00 высота над уровнем моря 427 м.

В архиве по умолчанию представлена погода в Балаганске за последнюю неделю. Архивные данные за месяц целиком и за предыдущие месяцы, начиная с января 2011 года, Вы можете получить, выбрав интересующий диапазон дат из раскрывающегося списка и нажав кнопку "Ввод!".


*Определитесь, кто Вы:
робот инопланетянин человек

Внимание! Время в таблицах - всемирное. Для получения местного времени необходимо прибавить поправку, которая равна 8 ч.

Смотрите также архив погоды в соседних городах и на ближайших метеорологических станциях:

Погода в Заларях (Иркутская область, Россия) (60 км)
Погода в Зиме (Иркутская область, Россия) (66 км)
Погода в Черемхово (Иркутская область, Россия) (91 км)
Погода в Инге (Иркутская область, Россия) (136 км)
Погода в Сараме (Иркутская область, Россия) (139 км)
Погода в Жигалове (Иркутская область, Россия) (162 км)
Погода в Тулуне (Иркутская область, Россия) (169 км)
Погода в Усть-Ордынском (Иркутская область, Россия) (174 км)
Погода в Ангарск (Иркутская область, Россия) (177 км)
Погода в Качуге (Иркутская область, Россия) (190 км)

Пояснения к столбцам:

Ветер - указаны скорость ветра в м/с - средняя за 10 мин, порывы в срок и между сроками (в фигурных скобках) и направление, откуда дует ветер: С - северный, СВ - северо-восточный, В - восточный, ЮВ - юго-восточный, Ю - южный, ЮЗ - юго-западный, З - западный, СЗ - северо-западный.
Видимость - горизонтальная дальность видимости в метрах или километрах. При видимости от 1 до 10 км при отсутствии осадков обычно наблюдается дымка, при ухудшении видимости до 1 км и менее - туман. В сухую погоду видимость может ухудшаться дымом, пылью или мглою.
Явления - указаны атмосферные явления, наблюдавшиеся в срок или в последний час перед сроком; фигурными скобками обозначены явления, наблюдавшиеся между сроками (за 1-3 часа до срока); квадратными скобками обозначены град или гололедные отложения с указанием их диаметра в мм.
Облачность - указаны через наклонную черту общая и нижняя облачность в баллах и высота нижней границы облаков в метрах; квадратными скобками обозначены формы облаков: Ci - перистые, Cs - перисто-слоистые, Cc - перисто-кучевые, Ac - высококучевые, As - высокослоистые, Sc - слоисто-кучевые, Ns - слоисто-дождевые, Cu - кучевые, Cb - кучево-дождевые. Подробнее классификацию облаков см. в Атласе облаков (PDF).
T - Температура воздуха - температура, измеренная на высоте 2 м над землей.
Td - Температура точки росы - температура, при понижении до которой содержащийся в воздухе водяной пар достигнет насыщения.
f - Относительная влажность воздуха - влажноcть воздуха, измеренная на высоте 2 м над землей.
Te - Эффективная температура - температура, которую ощущает одетый по сезону человек в тени. Характеристика душности погоды. При расчете учитывается влияние влажности воздуха и скорости ветра на теплоощущения человека.
Tes - Эффективная температура на солнце - температура, которую ощущает человек, с поправкой на солнечный нагрев. Характеристика знойности погоды. Зависит от высоты солнца над горизонтом, облачности и скорости ветра. Ночью, в пасмурную погоду, а также при ветре 12 м/с и более поправка равна нулю.
P - Атмосферное давление - приведенное к уровню моря атмосферное давление.
Po - Атмосферное давление - измеренное на уровне метеостанции атмосферное давление.
Tmin - Минимальная температура - минимум температуры воздуха на высоте 2 м над землей.
Tmax - Максимальная температура - максимум температуры воздуха на высоте 2 м над землей.
R - Количество осадков - Количество выпавших осадков за период времени, мм. При наведении курсора мыши на число - период времени, за который выпало указанное количество осадков.
R24 - Количество осадков - Количество выпавших осадков за 24 часа, мм.
S - Снежный покров - Высота снежного покрова, см. При наведении курсора мыши на число - состояние снежного покрова и степень покрытия местности в баллах.